Flag for Australia Weather past 2 weeks in Cairns, Queensland, Australia

Now
73 °F

Passing clouds.


Feels Like: 72 °F
Forecast: 69 / 90 °F
Wind: 5 mph from North

Location: Cairns Airport

Current Time: Dec 19, 2014 at 1:38:09 AM

Latest Report: Dec 19, 2014 at 1:00 AM


Visibility: N/A

Pressure: 29.86 "Hg

Humidity: 89%

Dew point: 70 °F

Location of CairnsLocation

Historic Weather in Cairns — Graph

°F

Cairns temperature yesterday

Maximum temperature yesterday: 90 °F (at 1:00 PM)
Minimum temperature yesterday: 73 °F (at 3:30 AM)
Average temperature yesterday: 80 °F

Past Weeks' High & Low Weather Summary

 TemperatureHumidityPressure
High93 °F (Dec 13, 1:00 PM)100% (Dec 6, 7:52 PM)29.95 "Hg (Dec 6, 7:52 PM)
Low70 °F (Dec 5, 3:00 AM)41% (Dec 14, 3:00 PM)29.56 "Hg (Dec 13, 3:30 PM)
Average82 °F74%29.79 "Hg
* Reported Midnight between Dec 3 and Dec 4 — Midnight between Dec 18 and Dec 19, Cairns, Weather by CustomWeather, © 2014

Note: Actual official high and low records may vary slightly from our data, if they occured in-between our weather recording intervals... More about our weather records

Advertising

Cairns weather history for previous 24 hours

 ConditionsComfort  
Time TempWeatherWind HumidityBarometerVisibility
12:00 AM
Dec 19
75 °FClear.3 mph89%29.89 "Hg10 mi
11:30 PM
Dec 18
75 °FClear.No wind83%29.86 "Hg10 mi
11:00 PM75 °FClear.No wind89%29.89 "Hg10 mi
10:30 PM75 °FClear.3 mph89%29.86 "Hg10 mi
10:00 PM75 °FPassing clouds.No wind83%29.86 "HgN/A
9:30 PM75 °FClear.No wind83%29.86 "HgN/A
9:00 PM75 °FPassing clouds.No wind83%29.86 "HgN/A
8:00 PM77 °FPassing clouds.No wind79%29.86 "HgN/A
7:30 PM79 °FPassing clouds.3 mph74%29.83 "HgN/A
7:00 PM79 °FPassing clouds.5 mph74%29.83 "HgN/A
6:30 PM82 °FPassing clouds.6 mph62%29.80 "HgN/A
6:00 PM82 °FPassing clouds.7 mph62%29.80 "HgN/A
5:00 PM84 °FSunny.8 mph58%29.77 "Hg10 mi
4:30 PM84 °FPartly sunny.9 mph58%29.77 "HgN/A
4:00 PM86 °FPartly sunny.10 mph55%29.77 "HgN/A
3:00 PM86 °FPartly sunny.10 mph55%29.80 "HgN/A
2:30 PM86 °FPassing clouds.10 mph52%29.80 "HgN/A
2:00 PM86 °FPassing clouds.9 mph52%29.83 "HgN/A
1:00 PM90 °FPassing clouds.10 mph46%29.83 "HgN/A
12:00 PM86 °FPassing clouds.10 mph55%29.86 "HgN/A
11:30 AM86 °FPassing clouds.9 mph55%29.86 "HgN/A
11:00 AM88 °FScattered clouds.9 mph55%29.86 "HgN/A
10:30 AM86 °FScattered clouds.9 mph55%29.89 "HgN/A
10:00 AM86 °FPassing clouds.9 mph55%29.89 "HgN/A
9:00 AM84 °FPassing clouds.9 mph58%29.89 "HgN/A
8:00 AM82 °FPassing clouds.5 mph70%29.89 "HgN/A
7:00 AM77 °FPassing clouds.No wind89%29.89 "HgN/A
6:00 AM73 °FPassing clouds.No wind94%29.86 "HgN/A
5:00 AM73 °FPassing clouds.No wind94%29.83 "HgN/A
4:30 AM73 °FPassing clouds.No wind94%29.83 "HgN/A
4:00 AM73 °FPassing clouds.5 mph94%29.80 "HgN/A
3:30 AM73 °FPassing clouds.No wind94%29.80 "HgN/A
3:00 AM75 °FPassing clouds.No wind89%29.80 "HgN/A
2:30 AM75 °FPassing clouds.3 mph89%29.80 "HgN/A
2:00 AM75 °FPassing clouds.3 mph89%29.80 "HgN/A
1:30 AM75 °FPassing clouds.3 mph89%29.80 "HgN/A
1:00 AM77 °FPassing clouds.5 mph89%29.80 "HgN/A
Weather by CustomWeather, © 2014

See weather overviewHow to use our weather pages